Powrót do katalogu

STARLINK-33732

AktywnyŁącznośćVLEO
NORAD 63575·PAYLOAD·🇺🇸 United States

Wystrzelony Apr 14, 2025 z Cape Canaveral Space Force Station

Loading…

Następne Przeloty (najbliższe 24 godziny)

TLE

ŚwieżeSource: CelesTrak SupGP

Epoka: Sep 15, 2026, 03:37 UTC

1 63575C 25076G   26258.15118056  .00049104  00000+0  17781-2 0  2587
2 63575  43.0019 331.8742 0001564 261.7540 123.3953 15.27562521    17

Śledź STARLINK-33732 w czasie rzeczywistym z AllMySat

Download on the App Store